| time (UTC) | temp F | wind direction | speed MPH | gust MPH | rain 1hr in | rain 24hr in | rain mn in | humidity % | barometer mb |
| 20260508011015 | 44 | 0.0 | 0.0 | 0.00 | 0.06 | 0.00 | 96 | 1014.9 | |
| 20260508010015 | 44 | 0.0 | 0.0 | 0.00 | 0.06 | 0.00 | 96 | 1015.0 | |
| 20260508005035 | 44 | 0.0 | 0.0 | 0.00 | 0.06 | 0.00 | 95 | 1015.0 | |
| 20260508004015 | 45 | 0.0 | 0.0 | 0.00 | 0.06 | 0.00 | 93 | 1015.0 | |
| 20260508003037 | 45 | 0.0 | 0.0 | 0.00 | 0.06 | 0.00 | 93 | 1015.1 | |
| 20260508002017 | 46 | 0.0 | 0.0 | 0.00 | 0.06 | 0.00 | 92 | 1015.2 | |
| 20260508001017 | 47 | 135 | 1.0 | 3.0 | 0.00 | 0.06 | 0.00 | 92 | 1015.2 |
| 20260508000017 | 47 | 113 | 2.0 | 3.0 | 0.00 | 0.06 | 0.00 | 93 | 1015.2 |
| 20260507235015 | 47 | 113 | 1.0 | 3.0 | 0.00 | 0.06 | 0.00 | 93 | 1015.1 |
| 20260507234037 | 47 | 0.0 | 2.0 | 0.00 | 0.06 | 0.00 | 92 | 1015.1 | |
| 20260507233017 | 47 | 0.0 | 2.0 | 0.00 | 0.06 | 0.00 | 93 | 1015.1 | |
| 20260507232017 | 47 | 0.0 | 0.0 | 0.00 | 0.06 | 0.00 | 93 | 1015.2 | |
| 20260507231017 | 47 | 0.0 | 0.0 | 0.00 | 0.06 | 0.00 | 93 | 1015.2 | |
| 20260507230017 | 47 | 0.0 | 1.0 | 0.00 | 0.06 | 0.06 | 92 | 1015.2 | |
| 20260507225016 | 47 | 0.0 | 0.0 | 0.00 | 0.06 | 0.06 | 92 | 1015.1 | |
| 20260507224015 | 47 | 0.0 | 1.0 | 0.00 | 0.06 | 0.06 | 93 | 1015.1 | |
| 20260507223016 | 47 | 0.0 | 0.0 | 0.00 | 0.06 | 0.06 | 93 | 1015.1 | |
| 20260507222016 | 47 | 0.0 | 0.0 | 0.00 | 0.06 | 0.06 | 92 | 1015.0 | |
| 20260507221017 | 47 | 0.0 | 0.0 | 0.00 | 0.06 | 0.06 | 92 | 1015.1 | |
| 20260507220016 | 47 | 0.0 | 0.0 | 0.00 | 0.06 | 0.06 | 91 | 1014.9 | |
| 20260507215015 | 48 | 0.0 | 0.0 | 0.00 | 0.06 | 0.06 | 90 | 1015.0 | |
| 20260507214015 | 49 | 135 | 1.0 | 5.0 | 0.00 | 0.06 | 0.06 | 89 | 1014.9 |
| 20260507213016 | 49 | 68 | 4.0 | 7.0 | 0.00 | 0.06 | 0.06 | 89 | 1014.9 |
| 20260507212016 | 49 | 68 | 4.0 | 7.0 | 0.00 | 0.06 | 0.06 | 88 | 1014.9 |
| 20260507211035 | 49 | 68 | 3.0 | 5.0 | 0.00 | 0.06 | 0.06 | 88 | 1014.8 |
| 20260507210015 | 49 | 68 | 3.0 | 7.0 | 0.00 | 0.06 | 0.06 | 88 | 1014.8 |
| 20260507205016 | 49 | 45 | 3.0 | 6.0 | 0.00 | 0.06 | 0.06 | 88 | 1014.6 |
| 20260507204017 | 49 | 68 | 3.0 | 7.0 | 0.00 | 0.06 | 0.06 | 87 | 1014.6 |
| 20260507203015 | 50 | 113 | 3.0 | 6.0 | 0.00 | 0.06 | 0.06 | 87 | 1014.5 |
| 20260507202015 | 50 | 135 | 3.0 | 9.0 | 0.00 | 0.06 | 0.06 | 86 | 1014.4 |
| 20260507201015 | 50 | 113 | 4.0 | 8.0 | 0.00 | 0.06 | 0.06 | 85 | 1014.2 |
| 20260507200039 | 51 | 113 | 6.0 | 12.0 | 0.00 | 0.06 | 0.06 | 84 | 1014.2 |
| 20260507195015 | 51 | 90 | 5.0 | 12.0 | 0.00 | 0.06 | 0.06 | 84 | 1014.2 |
| 20260507194039 | 52 | 113 | 4.0 | 10.0 | 0.00 | 0.06 | 0.06 | 83 | 1014.1 |
| 20260507193019 | 52 | 135 | 5.0 | 12.0 | 0.00 | 0.06 | 0.06 | 82 | 1014.0 |
| 20260507192017 | 52 | 135 | 5.0 | 9.0 | 0.00 | 0.06 | 0.06 | 82 | 1014.0 |
| 20260507191017 | 52 | 135 | 5.0 | 11.0 | 0.00 | 0.06 | 0.06 | 81 | 1013.9 |
| 20260507190019 | 52 | 135 | 6.0 | 15.0 | 0.00 | 0.06 | 0.06 | 81 | 1013.9 |
| 20260507185017 | 52 | 135 | 7.0 | 15.0 | 0.00 | 0.06 | 0.06 | 80 | 1013.8 |
| 20260507184037 | 52 | 135 | 7.0 | 13.0 | 0.00 | 0.06 | 0.06 | 79 | 1013.8 |
| 20260507183017 | 53 | 158 | 8.0 | 15.0 | 0.00 | 0.06 | 0.06 | 79 | 1013.9 |
| 20260507182019 | 53 | 135 | 6.0 | 15.0 | 0.00 | 0.06 | 0.06 | 79 | 1013.9 |
| 20260507181040 | 54 | 135 | 7.0 | 13.0 | 0.00 | 0.06 | 0.06 | 78 | 1013.8 |
| 20260507180017 | 54 | 135 | 8.0 | 17.0 | 0.00 | 0.06 | 0.06 | 78 | 1013.7 |
| 20260507175017 | 53 | 135 | 11.0 | 20.0 | 0.00 | 0.06 | 0.06 | 78 | 1013.6 |
| 20260507174017 | 53 | 135 | 12.0 | 20.0 | 0.00 | 0.06 | 0.06 | 78 | 1013.7 |
| 20260507173017 | 53 | 135 | 11.0 | 21.0 | 0.00 | 0.06 | 0.06 | 77 | 1013.7 |
| 20260507172017 | 54 | 158 | 13.0 | 23.0 | 0.00 | 0.06 | 0.06 | 76 | 1013.7 |
| 20260507171017 | 54 | 135 | 14.0 | 22.0 | 0.00 | 0.06 | 0.06 | 73 | 1013.6 |
| 20260507170017 | 55 | 158 | 12.0 | 22.0 | 0.00 | 0.06 | 0.06 | 75 | 1013.6 |
| 20260507165017 | 54 | 135 | 13.0 | 22.0 | 0.00 | 0.06 | 0.06 | 77 | 1013.6 |
| 20260507164017 | 54 | 158 | 15.0 | 22.0 | 0.00 | 0.06 | 0.06 | 78 | 1013.5 |
| 20260507163018 | 54 | 135 | 16.0 | 24.0 | 0.00 | 0.06 | 0.06 | 77 | 1013.6 |
| 20260507162019 | 54 | 158 | 14.0 | 22.0 | 0.00 | 0.06 | 0.06 | 77 | 1013.7 |
| 20260507161019 | 55 | 135 | 14.0 | 24.0 | 0.00 | 0.06 | 0.06 | 76 | 1013.7 |
| 20260507160040 | 55 | 135 | 13.0 | 22.0 | 0.00 | 0.06 | 0.06 | 75 | 1013.7 |
| 20260507155037 | 55 | 158 | 13.0 | 24.0 | 0.00 | 0.06 | 0.06 | 74 | 1013.6 |
| 20260507154017 | 55 | 135 | 13.0 | 21.0 | 0.00 | 0.06 | 0.06 | 71 | 1013.6 |
| 20260507153019 | 56 | 135 | 13.0 | 21.0 | 0.00 | 0.06 | 0.06 | 74 | 1013.5 |
| 20260507152017 | 54 | 135 | 14.0 | 24.0 | 0.00 | 0.06 | 0.06 | 72 | 1013.4 |
| 20260507151017 | 54 | 158 | 15.0 | 26.0 | 0.00 | 0.06 | 0.06 | 77 | 1013.5 |
| 20260507150017 | 54 | 135 | 15.0 | 24.0 | 0.00 | 0.06 | 0.06 | 77 | 1013.5 |
| 20260507145037 | 54 | 135 | 15.0 | 24.0 | 0.00 | 0.06 | 0.06 | 74 | 1013.5 |
| 20260507144037 | 55 | 135 | 13.0 | 22.0 | 0.00 | 0.06 | 0.06 | 73 | 1013.6 |
| 20260507143019 | 56 | 135 | 13.0 | 25.0 | 0.00 | 0.06 | 0.06 | 74 | 1013.6 |
| 20260507142017 | 56 | 135 | 14.0 | 23.0 | 0.00 | 0.06 | 0.06 | 71 | 1013.6 |
| 20260507141017 | 57 | 135 | 12.0 | 21.0 | 0.00 | 0.06 | 0.06 | 69 | 1013.6 |
| 20260507140017 | 57 | 158 | 12.0 | 21.0 | 0.00 | 0.06 | 0.06 | 70 | 1013.6 |
| 20260507135039 | 56 | 135 | 11.0 | 22.0 | 0.00 | 0.06 | 0.06 | 71 | 1013.7 |
| 20260507134017 | 56 | 135 | 12.0 | 23.0 | 0.00 | 0.06 | 0.06 | 71 | 1013.6 |
| 20260507133017 | 56 | 135 | 12.0 | 20.0 | 0.00 | 0.06 | 0.06 | 72 | 1013.6 |
| 20260507132037 | 56 | 135 | 12.0 | 20.0 | 0.00 | 0.06 | 0.06 | 72 | 1013.5 |
| 20260507131018 | 56 | 135 | 10.0 | 22.0 | 0.00 | 0.06 | 0.06 | 74 | 1013.7 |
| 20260507130057 | 56 | 135 | 9.0 | 22.0 | 0.00 | 0.06 | 0.06 | 73 | 1013.8 |
| 20260507125016 | 56 | 68 | 11.0 | 21.0 | 0.00 | 0.06 | 0.06 | 73 | 1013.8 |
| 20260507124016 | 56 | 158 | 9.0 | 18.0 | 0.00 | 0.06 | 0.06 | 72 | 1013.9 |
| 20260507123017 | 55 | 158 | 9.0 | 17.0 | 0.00 | 0.06 | 0.06 | 72 | 1013.9 |
| 20260507122016 | 55 | 135 | 7.0 | 14.0 | 0.00 | 0.06 | 0.06 | 73 | 1014.0 |
| 20260507121016 | 55 | 158 | 9.0 | 16.0 | 0.00 | 0.06 | 0.06 | 74 | 1014.0 |
| 20260507120016 | 55 | 158 | 9.0 | 15.0 | 0.00 | 0.06 | 0.06 | 73 | 1014.0 |
| 20260507115016 | 55 | 135 | 8.0 | 14.0 | 0.00 | 0.06 | 0.06 | 73 | 1014.0 |
| 20260507114018 | 54 | 135 | 10.0 | 17.0 | 0.00 | 0.06 | 0.06 | 73 | 1014.0 |
| 20260507113016 | 55 | 158 | 9.0 | 15.0 | 0.00 | 0.06 | 0.06 | 75 | 1014.0 |
| 20260507112017 | 55 | 158 | 9.0 | 18.0 | 0.00 | 0.06 | 0.06 | 76 | 1014.0 |
| 20260507111017 | 55 | 135 | 9.0 | 18.0 | 0.00 | 0.06 | 0.06 | 76 | 1014.0 |
| 20260507110016 | 54 | 135 | 10.0 | 18.0 | 0.00 | 0.06 | 0.06 | 76 | 1014.1 |
| 20260507105038 | 54 | 135 | 9.0 | 19.0 | 0.00 | 0.06 | 0.06 | 81 | 1014.1 |
| 20260507104017 | 53 | 135 | 9.0 | 16.0 | 0.00 | 0.06 | 0.06 | 85 | 1014.1 |
| 20260507103018 | 51 | 135 | 9.0 | 16.0 | 0.00 | 0.06 | 0.06 | 97 | 1014.1 |
| 20260507102016 | 51 | 135 | 9.0 | 14.0 | 0.00 | 0.06 | 0.06 | 98 | 1014.1 |
| 20260507101016 | 51 | 135 | 8.0 | 14.0 | 0.02 | 0.06 | 0.06 | 96 | 1014.1 |
| 20260507100017 | 51 | 68 | 6.0 | 16.0 | 0.05 | 0.06 | 0.06 | 97 | 1014.1 |
| 20260507095016 | 51 | 135 | 5.0 | 13.0 | 0.05 | 0.06 | 0.06 | 98 | 1014.1 |
| 20260507094018 | 51 | 113 | 4.0 | 9.0 | 0.05 | 0.06 | 0.06 | 99 | 1014.1 |
| 20260507093016 | 50 | 68 | 6.0 | 11.0 | 0.05 | 0.06 | 0.06 | 99 | 1014.1 |
| 20260507092016 | 50 | 113 | 3.0 | 11.0 | 0.06 | 0.06 | 0.06 | 98 | 1014.1 |
| 20260507091016 | 51 | 68 | 6.0 | 12.0 | 0.03 | 0.03 | 0.03 | 96 | 1014.1 |
| 20260507090016 | 51 | 45 | 6.0 | 11.0 | 0.01 | 0.01 | 0.01 | 94 | 1014.1 |
| 20260507085016 | 50 | 45 | 5.0 | 12.0 | 0.01 | 0.01 | 0.01 | 95 | 1014.0 |
| 20260507084016 | 50 | 68 | 4.0 | 10.0 | 0.01 | 0.01 | 0.01 | 95 | 1014.0 |
| 20260507083036 | 50 | 68 | 6.0 | 14.0 | 0.01 | 0.01 | 0.01 | 93 | 1014.1 |
| 20260507082018 | 51 | 68 | 5.0 | 12.0 | 0.00 | 0.00 | 0.00 | 91 | 1014.1 |
| 20260507081016 | 51 | 68 | 7.0 | 17.0 | 0.00 | 0.00 | 0.00 | 87 | 1014.1 |
| 20260507080038 | 52 | 68 | 9.0 | 17.0 | 0.00 | 0.00 | 0.00 | 79 | 1014.0 |
| 20260507075016 | 53 | 68 | 6.0 | 13.0 | 0.00 | 0.00 | 0.00 | 78 | 1013.9 |
| 20260507074016 | 52 | 68 | 7.0 | 15.0 | 0.00 | 0.00 | 0.00 | 77 | 1013.8 |
| 20260507073019 | 52 | 68 | 4.0 | 9.0 | 0.00 | 0.00 | 0.00 | 80 | 1013.8 |
| 20260507072020 | 52 | 68 | 4.0 | 8.0 | 0.00 | 0.00 | 0.00 | 82 | 1013.8 |
| 20260507071016 | 51 | 45 | 5.0 | 9.0 | 0.00 | 0.00 | 0.00 | 84 | 1013.8 |
| 20260507070016 | 51 | 45 | 3.0 | 7.0 | 0.00 | 0.00 | 0.00 | 86 | 1013.7 |
| 20260507065038 | 51 | 45 | 3.0 | 8.0 | 0.00 | 0.00 | 0.00 | 86 | 1013.7 |
| 20260507064016 | 51 | 45 | 3.0 | 8.0 | 0.00 | 0.00 | 0.00 | 85 | 1013.8 |
| 20260507063016 | 52 | 68 | 2.0 | 4.0 | 0.00 | 0.00 | 0.00 | 85 | 1013.9 |
| 20260507062036 | 50 | 45 | 3.0 | 6.0 | 0.00 | 0.00 | 0.00 | 88 | 1013.9 |
| 20260507061016 | 48 | 0 | 3.0 | 5.0 | 0.00 | 0.00 | 0.00 | 89 | 1013.9 |
| 20260507060036 | 47 | 0.0 | 3.0 | 0.00 | 0.00 | 0.00 | 90 | 1013.9 | |
| 20260507055017 | 46 | 0.0 | 1.0 | 0.00 | 0.00 | 0.00 | 93 | 1013.9 | |
| 20260507054016 | 46 | 0.0 | 1.0 | 0.00 | 0.00 | 0.00 | 92 | 1013.8 | |
| 20260507053019 | 47 | 0.0 | 3.0 | 0.00 | 0.00 | 0.00 | 90 | 1013.7 | |
| 20260507052039 | 46 | 68 | 1.0 | 3.0 | 0.00 | 0.00 | 0.00 | 91 | 1013.8 |
| 20260507051017 | 47 | 0.0 | 3.0 | 0.00 | 0.00 | 0.00 | 89 | 1013.7 | |
| 20260507050036 | 47 | 45 | 2.0 | 4.0 | 0.00 | 0.00 | 0.00 | 90 | 1013.8 |
| 20260507045056 | 46 | 45 | 1.0 | 3.0 | 0.00 | 0.00 | 0.00 | 91 | 1013.7 |
| 20260507044017 | 46 | 0.0 | 0.0 | 0.00 | 0.00 | 0.00 | 92 | 1013.8 | |
| 20260507043016 | 46 | 0.0 | 0.0 | 0.00 | 0.00 | 0.00 | 90 | 1013.7 | |
| 20260507042016 | 47 | 0.0 | 1.0 | 0.00 | 0.00 | 0.00 | 89 | 1013.8 | |
| 20260507041036 | 48 | 45 | 3.0 | 7.0 | 0.00 | 0.00 | 0.00 | 87 | 1013.7 |
| 20260507040017 | 48 | 45 | 2.0 | 4.0 | 0.00 | 0.00 | 0.00 | 87 | 1013.7 |
| 20260507035017 | 48 | 113 | 1.0 | 3.0 | 0.00 | 0.00 | 0.00 | 87 | 1013.9 |
| 20260507034016 | 48 | 68 | 1.0 | 3.0 | 0.00 | 0.00 | 0.00 | 87 | 1013.8 |
| 20260507033016 | 49 | 68 | 2.0 | 6.0 | 0.00 | 0.00 | 0.00 | 87 | 1013.9 |
| 20260507032016 | 49 | 45 | 2.0 | 5.0 | 0.00 | 0.00 | 0.00 | 87 | 1013.9 |
| 20260507031016 | 49 | 113 | 2.0 | 6.0 | 0.00 | 0.00 | 0.00 | 87 | 1013.9 |
| 20260507030016 | 49 | 113 | 2.0 | 5.0 | 0.00 | 0.00 | 0.00 | 87 | 1013.9 |
| 20260507025017 | 49 | 68 | 2.0 | 4.0 | 0.00 | 0.00 | 0.00 | 87 | 1014.0 |
| 20260507024015 | 49 | 113 | 1.0 | 4.0 | 0.00 | 0.00 | 0.00 | 87 | 1014.0 |
| 20260507023016 | 49 | 0.0 | 3.0 | 0.00 | 0.00 | 0.00 | 87 | 1014.0 | |
| 20260507022015 | 49 | 0.0 | 0.0 | 0.00 | 0.00 | 0.00 | 87 | 1014.0 | |
| 20260507021015 | 50 | 0.0 | 0.0 | 0.00 | 0.00 | 0.00 | 86 | 1014.0 | |
| 20260507020017 | 50 | 0.0 | 0.0 | 0.00 | 0.00 | 0.00 | 85 | 1014.1 | |
| 20260507015017 | 50 | 0.0 | 2.0 | 0.00 | 0.00 | 0.00 | 85 | 1014.1 | |
| 20260507014017 | 50 | 113 | 1.0 | 4.0 | 0.00 | 0.00 | 0.00 | 85 | 1014.2 |
| 20260507013037 | 50 | 113 | 2.0 | 4.0 | 0.00 | 0.00 | 0.00 | 85 | 1014.1 |
| 20260507012016 | 50 | 113 | 3.0 | 6.0 | 0.00 | 0.00 | 0.00 | 85 | 1014.1 |